Location: Hermaringen
(48.5952°N, 10.2585°E)
Time: 22:17:33
(UTC+00:00)

Altair - Pass Details

Date: 16 February 2026
Orbit: 1502 x 1682 km, 47.2° (Epoch: 10 March)

Event Time Altitude Azimuth Distance (km) Brightness Sun altitude
Exits shadow 01:55:14 11° 137° (SE) 3,620 9.4 -43.3°
Maximum altitude 01:57:26 12° 122° (ESE) 3,547 9.5 -43.1°
Drops below altitude 10° 02:00:06 10° 105° (ESE) 3,684 9.8 -42.7°
Sets 02:06:07 0° 76° (ENE) 4,707 10.8 -41.9°
